SCP
0 0 0 0 0 0 0 0 0 0 0 0 0 0 0 0 0 0 0 0 0 0
0 0 0 0 0 0 0 0 0 0 0 0 0 0 0 0 0 0 0 0 0 1
0 0 0 0 0 0 0 0 0 0 0 0 0 0 0 0 0 0 0 0 0 0
0 0 0 0 0 0 0 0 0 0 0 0 0 0 0 0 0 0 0 0 0 0
0 0 0 0 0 0 0 0 0 0 0 0 0 0 0 0 0 0 0 0 0 0
0 0 0 0 0 0 0 0 0 0 0 0 0 0 0 0 0 0 0 0 0 0
0 0 0 0 0 0 0 0 0 0 0 0 0 0 0 0 0 0 0 0 0 0
0 0 0 0 0 0 0 0 0 0 0 0 0 0 0 0 0 0 0 0 0 0
0 0 0 0 0 0 0 0 0 0 0 0 0 0 0 0 0 0 0 0 0 0
0 0 0 0 0 0 0 0 0 0 0 0 0 0 0 0 0 0 0 0 0 0
0 0 0 0 0 0 0 0 0 0 0 0 0 0 0 0 0 0 0 0 0 0
0 0 0 0 0 0 0 0 0 0 0 0 0 0 0 0 0 0 0 0 0 0
0 0 0 0 0 0 0 0 0 0 0 0 0 0 0 0 0 0 0 0 0 0
0 0 0 0 0 0 0 0 0 0 0 0 0 0 0 0 0 0 0 0 0 0
Wind_Speed_500mb
7 5 5 10 8 9 9 11 16 15 16 19 21 24 26 27 29 31 33 37 39 40
11 7 8 7 15 12 14 13 18 19 21 23 25 27 30 31 35 36 37 39 44 48
17 11 13 14 13 16 17 21 22 23 26 28 30 31 32 35 38 40 43 45 46 50
18 16 17 18 18 18 21 23 25 27 30 32 34 35 37 41 44 45 46 46 50 51
18 17 18 19 17 19 24 25 29 31 31 33 33 34 38 41 42 42 41 40 41 42
8 11 13 13 14 18 22 26 28 30 28 28 28 30 31 33 35 34 35 39 41 43
2 6 10 10 11 17 22 27 25 22 21 22 23 24 28 27 30 33 34 37 39 41
4 8 11 14 16 20 22 18 17 17 17 16 20 28 32 34 28 31 34 37 37 37
8 12 10 12 17 16 14 16 16 14 14 18 23 29 36 42 34 32 32 37 38 39
8 7 9 12 12 13 17 13 14 14 13 20 27 36 42 43 28 28 32 33 36 38
8 9 11 11 12 12 10 11 11 13 16 17 29 39 40 38 33 32 35 33 33 37
10 10 9 8 8 7 5 7 8 11 16 23 24 37 43 47 35 36 37 35 39 42
11 6 5 6 6 5 4 6 7 11 15 21 22 35 44 49 37 36 37 35 36 44
5 4 4 7 2 4 3 6 10 12 15 20 29 29 44 48 40 34 35 36 41 42
Wind_Direction_500mb
294 275 290 338 336 326 327 318 306 318 312 304 302 301 298 297 293 288 289 286 282 283
275 266 251 330 346 319 322 313 308 312 316 316 306 300 296 295 292 289 289 287 286 285
257 275 284 296 316 322 314 315 316 315 310 311 307 302 297 295 294 290 290 291 291 292
253 270 282 293 286 294 304 304 306 304 304 306 303 300 297 296 296 295 296 297 303 305
261 276 282 295 285 286 297 301 305 305 303 304 304 304 302 301 307 312 314 315 313 314
268 297 305 311 303 295 300 303 303 306 311 315 317 316 322 325 323 323 323 324 323 323
274 7 10 351 322 313 307 308 315 323 333 338 343 333 339 340 335 332 328 325 324 321
272 307 315 320 319 321 325 333 347 352 356 7 351 353 348 347 338 333 328 325 325 324
285 299 310 330 335 345 353 355 5 24 18 2 354 350 342 338 339 337 335 334 332 333
316 324 349 360 2 1 355 17 16 16 19 355 349 343 339 340 343 342 341 339 341 338
355 342 0 11 10 11 22 5 18 24 15 5 340 343 344 348 342 339 343 345 343 348
5 351 4 20 24 24 18 45 44 19 2 356 346 351 349 350 354 341 346 346 345 347
343 14 35 38 1 350 56 51 16 3 359 353 357 347 351 352 356 346 349 345 343 336
17 3 355 344 58 101 44 359 351 355 356 349 342 343 346 350 355 346 349 344 339 333
Wind_Speed_850mb
7 5 5 10 8 9 9 11 16 15 16 19 21 24 26 27 29 31 33 37 39 40
11 7 8 7 15 12 14 13 18 19 21 23 25 27 30 31 35 36 37 39 44 48
17 11 13 14 13 16 17 21 22 23 26 28 30 31 32 35 38 40 43 45 46 50
18 16 17 18 18 18 21 23 25 27 30 32 34 35 37 41 44 45 46 46 50 51
18 17 18 19 17 19 24 25 29 31 31 33 33 34 38 41 42 42 41 40 41 42
8 11 13 13 14 18 22 26 28 30 28 28 28 30 31 33 35 34 35 39 41 43
2 6 10 10 11 17 22 27 25 22 21 22 23 24 28 27 30 33 34 37 39 41
4 8 11 14 16 20 22 18 17 17 17 16 20 28 32 34 28 31 34 37 37 37
8 12 10 12 17 16 14 16 16 14 14 18 23 29 36 42 34 32 32 37 38 39
8 7 9 12 12 13 17 13 14 14 13 20 27 36 42 43 28 28 32 33 36 38
8 9 11 11 12 12 10 11 11 13 16 17 29 39 40 38 33 32 35 33 33 37
10 10 9 8 8 7 5 7 8 11 16 23 24 37 43 47 35 36 37 35 39 42
11 6 5 6 6 5 4 6 7 11 15 21 22 35 44 49 37 36 37 35 36 44
5 4 4 7 2 4 3 6 10 12 15 20 29 29 44 48 40 34 35 36 41 42
Wind_Direction_850mb
294 275 290 338 336 326 327 318 306 318 312 304 302 301 298 297 293 288 289 286 282 283
275 266 251 330 346 319 322 313 308 312 316 316 306 300 296 295 292 289 289 287 286 285
257 275 284 296 316 322 314 315 316 315 310 311 307 302 297 295 294 290 290 291 291 292
253 270 282 293 286 294 304 304 306 304 304 306 303 300 297 296 296 295 296 297 303 305
261 276 282 295 285 286 297 301 305 305 303 304 304 304 302 301 307 312 314 315 313 314
268 297 305 311 303 295 300 303 303 306 311 315 317 316 322 325 323 323 323 324 323 323
274 7 10 351 322 313 307 308 315 323 333 338 343 333 339 340 335 332 328 325 324 321
272 307 315 320 319 321 325 333 347 352 356 7 351 353 348 347 338 333 328 325 325 324
285 299 310 330 335 345 353 355 5 24 18 2 354 350 342 338 339 337 335 334 332 333
316 324 349 360 2 1 355 17 16 16 19 355 349 343 339 340 343 342 341 339 341 338
355 342 0 11 10 11 22 5 18 24 15 5 340 343 344 348 342 339 343 345 343 348
5 351 4 20 24 24 18 45 44 19 2 356 346 351 349 350 354 341 346 346 345 347
343 14 35 38 1 350 56 51 16 3 359 353 357 347 351 352 356 346 349 345 343 336
17 3 355 344 58 101 44 359 351 355 356 349 342 343 346 350 355 346 349 344 339 333